Location: Barcelona
(41.3830°N, 2.1830°E)
Time: 22:47:43
(UTC+01:00)

ISS - Pass Details

Date: 16 January 2018
Orbit: 402 x 407 km, 51.6° (Epoch: 23 January)

Event Time Altitude Azimuth Distance (km) Brightness Sun altitude
Exits shadow 06:09:25 37° 141° (SE) 654 -2.5 -23.1°
Drops below altitude 10° 06:11:31 10° 133° (SE) 1,459 -0.3 -22.7°
Sets 06:13:36 0° 131° (SE) 2,316 0.9 -22.3°
